Flag for Netherlands Weather past 2 weeks in Eindhoven, Netherlands

66 °F

Partly sunny.

Feels Like: 66 °F
Forecast: 56 / 63 °F
Wind: 8 mph from South

Location: Eindhoven Airport

Current Time: Oct 6, 2015 at 7:09:37 PM

Latest Report: Oct 6, 2015 at 6:25 PM

Visibility: N/A

Pressure: 29.56 "Hg

Humidity: 88%

Dew point: 63 °F

Location of EindhovenLocation

Historic Weather in Eindhoven — Graph


Eindhoven temperature yesterday

Maximum temperature yesterday: 63 °F (at 12:55 PM)
Minimum temperature yesterday: 48 °F (at 1:25 AM)
Average temperature yesterday: 56 °F

Past Weeks' High & Low Weather Summary

High68 °F (Oct 3, 3:55 PM)100% (Sep 22, 12:55 AM)30.63 "Hg (Sep 22, 12:55 AM)
Low37 °F (Oct 2, 3:55 AM)46% (Sep 30, 2:25 PM)29.47 "Hg (Sep 22, 4:25 PM)
Average54 °F84%30.13 "Hg
* Reported Sep 21 6:25 PM — Oct 6 6:01 PM, Eindhoven, Weather by CustomWeather, © 2015

Note: Actual official high and low records may vary slightly from our data, if they occured in-between our weather recording intervals... More about our weather records


Eindhoven weather history for previous 24 hours

Time TempWeatherWind HumidityBarometerVisibility
6:01 PM
Tue, Oct 6
64 °FBroken clouds.8 mph94%29.56 "HgN/A
5:55 PM64 °FPartly sunny.9 mph94%29.56 "HgN/A
5:25 PM66 °FMostly cloudy.7 mph88%29.53 "HgN/A
4:56 PM64 °FBroken clouds.6 mph94%29.53 "HgN/A
4:25 PM64 °FCloudy.5 mph94%29.56 "HgN/A
3:55 PM64 °FBroken clouds.5 mph94%29.56 "HgN/A
3:25 PM64 °FCloudy.2 mph94%29.56 "HgN/A
2:58 PM64 °FRain. Mostly cloudy.5 mph94%29.56 "Hg4 mi
2:55 PM64 °FLight rain. Mostly cloudy.6 mph88%29.56 "HgN/A
2:25 PM64 °FMore clouds than sun.5 mph88%29.56 "HgN/A
1:55 PM63 °FOvercast.6 mph94%29.59 "HgN/A
1:25 PM63 °FMostly cloudy.5 mph94%29.59 "HgN/A
12:55 PM63 °FBroken clouds.8 mph94%29.59 "HgN/A
12:25 PM63 °FBroken clouds.5 mph94%29.59 "HgN/A
12:02 PM61 °FFog.5 mph94%29.59 "Hg6 mi
11:55 AM61 °FFog.5 mph100%29.59 "Hg6 mi
11:25 AM61 °FFog.5 mph94%29.59 "Hg4 mi
10:59 AM59 °FFog.5 mph100%29.59 "Hg3 mi
10:55 AM59 °FFog.5 mph100%29.59 "Hg3 mi
10:25 AM59 °FFog.5 mph100%29.59 "Hg2 mi
9:55 AM57 °FFog.6 mph100%29.59 "Hg1 mi
9:25 AM57 °FFog.5 mph100%29.59 "Hg1 mi
8:55 AM57 °FFog.6 mph100%29.59 "Hg1 mi
8:25 AM57 °FFog.9 mph100%29.59 "Hg1 mi
7:55 AM57 °FFog.6 mph100%29.56 "Hg1 mi
7:25 AM57 °FFog.7 mph100%29.59 "Hg1 mi
6:55 AM57 °FFog.8 mph100%29.56 "Hg1 mi
6:25 AM57 °FFog.5 mph100%29.56 "Hg1 mi
5:55 AM57 °FFog.5 mph100%29.56 "Hg1 mi
4:55 AM57 °FDrizzle. Low clouds.5 mph100%29.56 "Hg1 mi
4:25 AM57 °FFog.3 mph100%29.56 "Hg2 mi
3:55 AM57 °FDrizzle. Mostly cloudy.5 mph100%29.56 "Hg2 mi
3:25 AM57 °FLight rain. Mostly cloudy.9 mph100%29.59 "Hg2 mi
2:55 AM57 °FLight rain. Partly cloudy.8 mph100%29.59 "Hg2 mi
2:25 AM57 °FLight rain. Partly cloudy.8 mph100%29.62 "Hg2 mi
1:55 AM57 °FLight rain. Partly cloudy.7 mph100%29.62 "Hg2 mi
1:25 AM57 °FRain showers. Partly cloudy.7 mph100%29.65 "Hg2 mi
12:59 AM57 °FLight rain. Low clouds.5 mph100%29.65 "Hg3 mi
12:25 AM57 °FLight rain. Partly cloudy.6 mph100%29.68 "Hg3 mi
11:55 PM
Mon, Oct 5
57 °FLight rain. Partly cloudy.6 mph100%29.68 "Hg4 mi
10:55 PM57 °FLight rain. Mostly cloudy.5 mph100%29.71 "Hg4 mi
10:25 PM57 °FLight rain. Partly cloudy.5 mph94%29.71 "HgN/A
9:55 PM59 °FDrizzle. Mostly cloudy.5 mph88%29.71 "HgN/A
9:25 PM59 °FPassing clouds.5 mph88%29.74 "HgN/A
9:00 PM59 °FMostly cloudy.5 mph88%29.74 "HgN/A
8:55 PM59 °FOvercast.6 mph88%29.74 "HgN/A
8:25 PM61 °FOvercast.6 mph83%29.74 "HgN/A
7:57 PM61 °FOvercast.6 mph83%29.74 "HgN/A
7:25 PM61 °FOvercast.7 mph83%29.77 "HgN/A
Weather by CustomWeather, © 2015

See weather overviewHow to use our weather pages